TimeCST,TemperatureF,Dew PointF,Humidity,Sea Level PressureIn,VisibilityMPH,Wind Direction,Wind SpeedMPH,Gust SpeedMPH,PrecipitationIn,Events,Conditions,WindDirDegrees,DateUTC
12:56 AM,6.1,1.9,83,30.27,-9999.0,North,9.2,-,N/A,,Unknown,350,2012-12-23 06:56:00
1:56 AM,8.1,5.0,87,30.27,-9999.0,NNE,15.0,-,N/A,,Unknown,20,2012-12-23 07:56:00
2:56 AM,7.0,3.9,87,30.26,-9999.0,NNE,15.0,-,N/A,,Unknown,30,2012-12-23 08:56:00
3:56 AM,7.0,3.0,84,30.26,-9999.0,NNE,9.2,-,N/A,,Unknown,20,2012-12-23 09:56:00
4:56 AM,6.1,1.9,83,30.26,-9999.0,North,10.4,-,N/A,,Unknown,10,2012-12-23 10:56:00
5:56 AM,3.9,1.0,88,30.28,-9999.0,North,10.4,-,N/A,,Unknown,360,2012-12-23 11:56:00
6:56 AM,3.9,-0.0,84,30.27,-9999.0,North,9.2,-,N/A,,Unknown,10,2012-12-23 12:56:00
7:56 AM,1.9,-0.0,91,30.27,-9999.0,North,6.9,-,N/A,,Unknown,360,2012-12-23 13:56:00
8:56 AM,3.0,-0.0,87,30.25,-9999.0,NNE,5.8,-,N/A,,Unknown,20,2012-12-23 14:56:00
9:56 AM,5.0,1.0,84,30.25,-9999.0,NNE,5.8,-,N/A,,Unknown,30,2012-12-23 15:56:00
10:56 AM,7.0,3.0,84,30.25,-9999.0,ENE,4.6,-,N/A,,Unknown,60,2012-12-23 16:56:00
11:56 AM,9.0,3.9,80,30.23,-9999.0,ENE,5.8,-,N/A,,Unknown,60,2012-12-23 17:56:00
12:56 PM,10.9,6.1,81,30.22,-9999.0,NE,4.6,-,N/A,,Unknown,50,2012-12-23 18:56:00
1:56 PM,10.9,6.1,81,30.21,-9999.0,NE,5.8,-,N/A,,Unknown,50,2012-12-23 19:56:00
2:56 PM,10.0,6.1,84,30.23,-9999.0,NNE,6.9,-,N/A,,Unknown,20,2012-12-23 20:56:00
3:56 PM,9.0,5.0,84,30.22,-9999.0,NNE,8.1,-,N/A,,Unknown,20,2012-12-23 21:56:00
4:56 PM,8.1,3.9,83,30.22,-9999.0,NNE,8.1,-,N/A,,Unknown,30,2012-12-23 22:56:00
5:56 PM,7.0,3.9,87,30.22,-9999.0,NNE,10.4,-,N/A,,Unknown,20,2012-12-23 23:56:00
6:56 PM,7.0,3.0,84,30.21,-9999.0,NNE,12.7,-,N/A,,Unknown,30,2012-12-24 00:56:00
7:56 PM,7.0,3.0,84,30.19,-9999.0,NE,10.4,-,N/A,,Unknown,40,2012-12-24 01:56:00
8:56 PM,7.0,3.9,87,30.20,-9999.0,North,8.1,-,N/A,,Unknown,360,2012-12-24 02:56:00
9:56 PM,7.0,3.0,84,30.21,-9999.0,North,10.4,-,N/A,,Unknown,350,2012-12-24 03:56:00
10:56 PM,6.1,3.0,87,30.20,-9999.0,North,12.7,-,N/A,,Unknown,350,2012-12-24 04:56:00
11:56 PM,6.1,1.9,83,30.21,-9999.0,North,15.0,-,N/A,,Unknown,350,2012-12-24 05:56:00